TimeMST,TemperatureF,Dew PointF,Humidity,Sea Level PressureIn,VisibilityMPH,Wind Direction,Wind SpeedMPH,Gust SpeedMPH,PrecipitationIn,Events,Conditions,WindDirDegrees,DateUTC
12:53 AM,54.0,37.9,55,29.84,10.0,Calm,Calm,-,N/A,,Clear,0,2012-12-07 07:53:00
1:53 AM,53.1,39.0,59,29.83,10.0,NE,3.5,-,N/A,,Clear,50,2012-12-07 08:53:00
2:53 AM,53.1,37.9,57,29.84,10.0,Calm,Calm,-,N/A,,Clear,0,2012-12-07 09:53:00
3:53 AM,53.1,37.9,57,29.84,10.0,Calm,Calm,-,N/A,,Clear,0,2012-12-07 10:53:00
4:53 AM,50.0,37.0,61,29.84,10.0,Calm,Calm,-,N/A,,Clear,0,2012-12-07 11:53:00
5:53 AM,51.1,37.9,61,29.86,10.0,Calm,Calm,-,N/A,,Clear,0,2012-12-07 12:53:00
6:53 AM,51.1,37.0,59,29.88,10.0,Calm,Calm,-,N/A,,Clear,0,2012-12-07 13:53:00
7:53 AM,52.0,37.9,59,29.89,10.0,Calm,Calm,-,N/A,,Clear,0,2012-12-07 14:53:00
8:53 AM,57.0,36.0,45,29.91,10.0,Calm,Calm,-,N/A,,Clear,0,2012-12-07 15:53:00
9:53 AM,60.1,36.0,41,29.92,10.0,Calm,Calm,-,N/A,,Clear,0,2012-12-07 16:53:00
10:53 AM,64.0,37.0,37,29.91,10.0,Calm,Calm,-,N/A,,Clear,0,2012-12-07 17:53:00
11:53 AM,68.0,36.0,31,29.89,10.0,Calm,Calm,-,N/A,,Clear,0,2012-12-07 18:53:00
12:53 PM,71.1,37.0,29,29.87,10.0,Variable,3.5,-,N/A,,Clear,0,2012-12-07 19:53:00
1:53 PM,71.1,37.0,29,29.85,10.0,Calm,Calm,-,N/A,,Clear,0,2012-12-07 20:53:00
2:53 PM,72.0,37.9,29,29.84,10.0,Calm,Calm,-,N/A,,Clear,0,2012-12-07 21:53:00
3:53 PM,73.0,37.9,28,29.84,10.0,West,3.5,-,N/A,,Clear,260,2012-12-07 22:53:00
4:53 PM,71.1,37.9,30,29.84,10.0,WSW,3.5,-,N/A,,Clear,240,2012-12-07 23:53:00
6:53 PM,64.9,39.0,39,29.86,10.0,Calm,Calm,-,N/A,,Clear,0,2012-12-08 01:53:00
7:53 PM,63.0,39.0,41,29.87,10.0,Calm,Calm,-,N/A,,Clear,0,2012-12-08 02:53:00
8:53 PM,60.1,39.9,47,29.88,10.0,NE,3.5,-,N/A,,Clear,40,2012-12-08 03:53:00
9:53 PM,61.0,39.0,44,29.88,10.0,Calm,Calm,-,N/A,,Clear,0,2012-12-08 04:53:00
10:53 PM,57.9,39.0,49,29.88,10.0,Calm,Calm,-,N/A,,Clear,0,2012-12-08 05:53:00
11:53 PM,54.0,39.9,59,29.88,10.0,Calm,Calm,-,N/A,,Clear,0,2012-12-08 06:53:00